Погода в Нолинске

Погода в Нолинске : погода сейчас, прогноз погоды и архив. Всё, что Вы хотите узнать о погоде в Нолинске!

Хотите узнать прогноз погоды в Нолинске? Тогда Вам сюда: Погода в Нолинске

Поиск расширенной информации на нашем сайте:

Другие новости

Новости СМИ2

Главная страница сайта

Новости сайта

03.07.2017

Напоминаем, что на нашем специализированном сайте Метеоцентр.Азия вы можете получить высокодетализированные автоматические прогнозы погоды по пунктам России, СНГ и мира в авиационном формате (включающие направление и скорость ветра, видимость, явления погоды, количество и форму облачности, нижнюю и верхнюю границу облачности).

Рекомендуем: Мобильные конструкции в аренду. Мобильные выставочные стенды конструкции.

Погода в Нолинске - сегодня

Время (UTC), дата Ветер
(°,м/с) 
Видим.   Явления Облачность Т
(°С)
Тd
(°С)
f(%) Тe
(°С)
Pmin
(гПа)
dP
(гПа)
Po
(мм)
O2
(г/м3)
Тmin Tmax R s Состояние
почвы
09 15.02.18 220 (ЮЗ) 2-2{02}  20000 м    ясно 
-13.5 -15.5 85 -16  1040.7  0.7  767  326           
15 15.02.18 220 (ЮЗ) 3-4{04}  20000 м    1/0 верхняя 
[Ci fib]
-12.5 -16.8 70 -16  1041.2  0.4  767  325    -8       
18 15.02.18 240 (ЮЗ) 2-2{04}  20000 м    ясно 
-14.7 -17.4 80 -17  1041.7  0.3  768  328           
21 15.02.18 240 (ЮЗ) 2-2{03}  20000 м    ясно 
-17.3 -18.5 90 -20  1042  0.1  768  332           
03 16.02.18 260 (З) 1-1{02}  20000 м    ясно 
-20.1 -22 85 -20  1042.6  0.1  768  336  -21      59  равномерный
сухой снег
100% 
06 16.02.18 тихо () -0{01}  20000 м    ясно 
-19.1 -21.7 80 -19  1042.4  -0.1  768  334           
09 16.02.18 240 (ЮЗ) 2-3{03}  20000 м    ясно 
-14.5 -17.2 80 -17  1041.9  -0.2  768  328           
15 16.02.18 210 (ЮЗ) 2-3{05}  20000 м    8/0 средняя 
[Ac trans]
-11.1 -15.5 70 -13  1040.2  -1  767  323    -10.1       
03 17.02.18 210 (ЮЗ) 4-6{06}  20000 м    8/3 600 м средняя 
[Sc|Ac As]
-9.7 -12.8 78 -14  1037.5  -0.5  765  321  -11.3      59  равномерный
сухой снег
100% 
15 17.02.18 200 (Ю) 4-5{07}  20000 м    10/10 600 м 
[Sc]
-7.3 -11.2 74 -11  1035.7  -0.8  764  317    -6.9       
03 18.02.18 200 (Ю) 4-5{06}  10 км  слаб. снег  10/3 300 м средняя 
[Frnb|As op]
-11.4 -13.4 85 -16  1033  -1.1  761  321  -13    0.0  59  равномерный
сухой снег
100% 
15 18.02.18 170 (Ю) 4-5{08}  20000 м    8/6 600 м средняя, верхняя 
[Sc|Ac cast|Ci]
-9.2 -13.7 70 -13  1029.7  -1.1  759  318    -7.1  0.0     
03 19.02.18 120 (ЮВ) 2-3{06}  4000 м  слаб. снег  10/8 300 м средняя 
[Frnb|Ac As]
-8.2 -10.1 86 -10  1023  -1.7  754  314  -9.7    0.5  58  равномерный
сухой снег
100% 
15 19.02.18 170 (Ю) 4-5{08}  10 км  слаб. ливневой снег  9/6 600 м кучево-дожд., средняя, верхняя 
[Cb cap|Ac trans|Ci]
-9.1 -11.1 85 -13  1020.1  -0.2  752  315    -6.7  0.6     
03 20.02.18 150 (ЮВ) 1-2{02}  10 км  слаб. снег  10/3 300 м средняя 
[Frnb|As op]
-12.8 -14.1 90 -13  1016.7  -1.4  749  318  -15.1    0.8  60  равномерный
сухой снег
100% 
15 20.02.18 210 (ЮЗ) 1-3{04}  10 км  слаб. снег  10/4 300 м средняя 
[Frnb|Ac As]
-8.4 -9.9 89 -8  1013.8  -0.4  747  312    -6.7  0.2     
03 21.02.18 240 (ЮЗ) 2-3{04}  10 км  слаб. снег  10/3 300 м средняя 
[Frnb|Ac As]
-15 -16.3 90 -17  1013.7  0.2  747  320  -15.9    0.7  61  равномерный
сухой снег
100% 
15 21.02.18 250 (З) 3-4{05}  20000 м    8/3 600 м верхняя 
[Sc diur, vesp|Ci fib]
-11.3 -13.3 85 -14  1014.9  0.8  748  316    -9.2       
21 21.02.18 240 (ЮЗ) 2-3{03}  20000 м    ясно 
-14.1 -15.4 90 -16  1016.5  0.4  749  320           
03 22.02.18 260 (З) 2-3{03}  20000 м    6/0 верхняя 
[Ci fib]
-18 -19.9 85 -21  1018.8  0.9  751  325  -18.1      61  равномерный
сухой снег
100% 
09 22.02.18 250 (З) 3-4{04}  20000 м    8/6 600 м верхняя 
[Cu hum|Ci]
-15.9 -18.6 80 -20  1019.9  0.6  751  323           
15 22.02.18 260 (З) 3-4{05}  20000 м    3/1 300 м средняя, верхняя 
[St|Ac trans|Ci fib]
-16.3 -18.9 80 -20  1021.6  0.9  753  324    -13.8       
18 22.02.18 240 (ЮЗ) 2-3{04}  20000 м    ясно 
-17.8 -19.7 85 -20  1022.5  0.8  753  326           
21 22.02.18 220 (ЮЗ) 3-4{04}  20000 м    ясно 
-22.1 -24 85 -27  1023.1  0.3  753  332           
03 23.02.18 220 (ЮЗ) 4-5{05}  20000 м    ясно 
-23.8 -26.3 80 -30  1022.8  -0.5  753  334  -26.1      61  равномерный
сухой снег
100% 
Время (UTC), дата Ветер
(°,м/с) 
Видим.   Явления Облачность Т
(°С)
Тd
(°С)
f(%) Тe
(°С)
Pmin
(гПа)
dP
(гПа)
Po
(мм)
O2
(г/м3)
Тmin Tmax R s Состояние
почвы

Для получения пояснительной информации подведите курсор к названию столбца.

ПОГОДА в Нолинске - архив

Всё, что Вы хотите узнать о погоде в Нолинске - удобно и подробно!

Выберите нужную дату (начиная с 1 января 2015* года) и нажмите кнопку "Найти".
Будут отображены архивные сводки погоды по пункту Нолинск, начиная с указанной даты.


Отображать данные в формате CSV (для использования в таблицах Excel)


Внимание! Наш архив погоды предназначен исключительно для личного некоммерческого использования в познавательных целях. Если Вам необходимы официальные справки о состоянии погоды (для производственных, юридических, коммерческих и т.п. целей), обращайтесь в органы Росгидромета.

*Примечание: данная дата относится к архиву по метеостанциям СССР (Россия, СНГ, Балтия).
Архив по метеостанциям Зарубежной Европы и Азии (кроме Китая) хранится 10 дней, по другим регионам земного шара (Китай, Африка, Америка, Австралия, Океания) - 1 день.

Нолинск - район местоположения метеостанции


Название, широта, долгота, высота метеостанции:
Нолинск 57.6°ш. 49.9°д. 136 м над ур. моря [Российская Федерация]

Дополнительная информация

В oтличие oт бoльшинства пoгoдных сайтoв мы публикуем пoдрoбную метеoинфoрмацию в детальнoм прoфессиoнальнoм фoрмате.

Характеристики температуры и влажнoсти вoздуха измеряются на высoте 2 м в тени вдали oт зданий и деревьев.
Скoрoсть ветра измеряется на высoте 10 м (на урoвне рoста челoвека скoрoсть ветра ниже в 1.5-2 раза). Если метеoстанция нахoдится в гoрoде или в лесу, тo скoрoсть ветра занижена на 2-4 м/с пo сравнению с oткрытым местoм. Скoрoсть ветра над акватoриями крупных рек и oзёр, а также на вершинах хoлмoв на 2-5 м/с выше, чем в oбычных услoвиях.
Атмoсфернoе давление в разных тoчках местнoсти мoжет значительнo oтличаться oт давления на метеoстанции, в зависимoсти oт услoвий рельефа (при пoдъёме на 10 м давление пoнижается примернo на 1 мм рт.ст.).